Zurück zum Katalog

GONETS M 18

AktivKommunikationPO
NORAD 46487·PAYLOAD·🇷🇺 Russia

Gestartet Sep 28, 2020 von Plesetsk Cosmodrome

Loading…

Nächste Überflüge (nächste 24 Stunden)

TLE

AktuellSource: Space-Track

Epoche: Sep 14, 2026, 14:32 UTC

1 46487U 20068B   26257.60611063  .00000022  00000-0  86694-4 0  9991
2 46487  82.4905 290.9653 0019644 193.2644 166.7922 12.42876807270250

Verfolge GONETS M 18 in Echtzeit mit AllMySat

Download on the App Store